Chihuahua, Mexico

8:00 AM MDT on September 26, 2016 (GMT -0600)
Gen Div P A Roberto Fierro

Weather History for MMCU - May, 2013

Change the Weather History Date:

Friday, May 3, 2013

  Actual Average Record
Temperature  
Mean Temperature 56 °F -  
Max Temperature 69 °F 87 °F 100 °F (1998)
Min Temperature 42 °F 54 °F 37 °F (2011)
Degree Days  
Heating Degree Days 10    
Growing Degree Days 6 (Base 50)    
Moisture  
Dew Point 26 °F    
Average Humidity 30    
Maximum Humidity 46    
Minimum Humidity 15    
Precipitation  
Precipitation 0.00 in - - ()
Sea Level Pressure  
Sea Level Pressure 30.18 in    
Wind  
Wind Speed 6 mph ()    
Max Wind Speed 14 mph    
Max Gust Speed -    
Visibility 8.1 miles    
Events      
Averages and records for this station are not official NWS values.
T = Trace of Precipitation, MM = Missing Value Source: Averaged Metar Reports

Daily Weather History Graph

Daily Weather History Graph

Search for Another Location

Airport or City:

Trip Planner

Search our weather history database for the weather conditions in past years. The results will help you decide how hot, cold, wet, or windy it might be!

Date:

Astronomy

May. 03, 2013 Rise Set
Actual Time 6:21 AM MDT 7:40 PM MDT
Civil Twilight 5:55 AM MDT 8:05 PM MDT
Nautical Twilight 5:26 AM MDT 8:35 PM MDT
Astronomical Twilight 4:55 AM MDT 9:06 PM MDT
Moon 2:16 AM MDT (5/3) 2:06 PM MDT (5/3)
Length of Visible Light 14h 09m
Length of Day
13h 19m
Last Quarter, 36% of the Moon is Illuminated
May 3
Last Quarter
May 9
New
May 17
First Quarter
May 24
Full
May 31
Last Quarter

Hourly Weather History & Observations

Time (MDT) Temp. Windchill Dew Point Humidity Pressure Visibility Wind Dir Wind Speed Gust Speed Precip Events Conditions
2:40 AM 47 °F - 33 °F 46% 30.17 in 1 mi ENE 6.7 mph - -  
4:40 AM 42.8 °F 38.0 °F 21.2 °F 42% 30.44 in 10.0 mi East 8.1 mph - N/A   Clear
5:40 AM 44 °F - 28 °F 40% 30.23 in 1 mi NNE 2.2 mph - -  
5:40 AM 39.2 °F 35.9 °F 19.4 °F 45% 30.30 in 10.0 mi East 4.6 mph - N/A   Clear
6:40 AM 41.0 °F 35.8 °F 19.4 °F 42% 30.44 in 10.0 mi ENE 8.1 mph - N/A   Clear
7:40 AM 44.6 °F 39.7 °F 21.2 °F 39% 30.45 in 10.0 mi East 9.2 mph - N/A   Clear
8:40 AM 46.4 °F 41.5 °F 19.4 °F 34% 30.36 in 10.0 mi East 10.4 mph - N/A   Clear
8:45 AM 49 °F - 28 °F 31% 30.28 in 6 mi ENE 6.7 mph - -  
9:40 AM 50.0 °F - 19.4 °F 30% - 10.0 mi ENE 11.5 mph - N/A   Clear
10:40 AM 53.6 °F - 19.4 °F 26% 30.39 in 10.0 mi ENE 11.5 mph - N/A   Partly Cloudy
11:40 AM 55.4 °F - 19.4 °F 25% 30.24 in 10.0 mi ESE 9.2 mph - N/A   Scattered Clouds
11:45 AM 57 °F - 30 °F 23% 30.19 in 6 mi ENE 4.5 mph - -   Partly Cloudy
1:40 PM 62.6 °F - 26.6 °F 26% 30.25 in 10.0 mi NE 11.5 mph - N/A   Mostly Cloudy
2:40 PM 68 °F - 31 °F 15% 30.01 in 6 mi SSE 4.5 mph - -   Partly Cloudy
2:40 PM 64.4 °F - 28.4 °F 26% 30.08 in 10.0 mi East 4.6 mph - N/A   Mostly Cloudy
3:40 PM 66.2 °F - 28.4 °F 24% 30.17 in 10.0 mi South 9.2 mph - N/A   Mostly Cloudy
4:40 PM 66.2 °F - 28.4 °F 24% 30.13 in 10.0 mi SE 3.5 mph - N/A   Mostly Cloudy
5:40 PM 69 °F - 32 °F 15% 29.84 in 6 mi SE 4.5 mph - -   Mostly Cloudy
5:40 PM 68.0 °F - 30.2 °F 24% 29.98 in 10.0 mi East 11.5 mph - N/A   Mostly Cloudy
6:40 PM 66.2 °F - 30.2 °F 26% 30.09 in 10.0 mi East 13.8 mph - N/A   Mostly Cloudy
7:40 PM 62.6 °F - 30.2 °F 30% 30.09 in 10.0 mi East 9.2 mph - N/A   Mostly Cloudy
8:35 PM 64 °F - 36 °F 24% 29.78 in 1 mi South 6.7 mph - -   Overcast
8:40 PM 62.6 °F - 30.2 °F 30% 29.98 in 10.0 mi Calm Calm - N/A   Mostly Cloudy